Temperature
18 18 18 18 18 19 19 18 18 18 19 19 18 18 18 18 18 18 18 18 18 18 18 18 18 18 18 18 18 18 17 17 17 17 17 17 17 17 17 17 17 17 17
18 18 18 19 19 19 19 18 18 18 18 18 18 18 18 18 18 18 18 18 18 18 18 18 18 18 18 18 18 18 17 17 17 17 17 17 17 17 17 17 17 17 17
19 18 18 19 19 19 19 19 18 18 18 18 18 18 18 18 18 18 18 18 18 18 18 18 18 18 18 18 17 17 17 17 17 17 17 17 17 17 17 17 17 17 16
19 19 19 19 19 19 19 18 18 18 18 18 18 18 18 18 18 18 18 18 18 18 18 18 18 17 17 17 17 17 17 17 17 17 17 17 17 17 17 17 17 16 16
19 19 19 19 19 19 19 18 18 18 18 18 18 18 18 18 18 18 18 18 18 18 18 18 18 18 18 17 17 17 17 17 17 17 17 17 17 17 17 17 17 16 16
19 19 19 19 19 19 19 18 18 18 18 18 18 18 18 18 18 18 18 18 18 18 17 18 18 17 17 17 17 17 17 17 17 17 17 17 17 17 17 17 16 17 16
19 19 19 19 19 19 19 18 18 18 18 18 18 18 18 18 18 18 18 18 18 18 18 17 17 17 17 17 17 17 17 17 17 17 17 17 17 17 17 17 17 17 16
19 19 19 19 19 19 19 18 18 18 18 18 18 18 18 18 18 18 18 18 18 18 18 17 17 17 17 17 17 17 17 17 17 17 17 17 17 17 17 17 17 17 16
19 19 19 19 19 19 19 18 18 18 18 18 18 18 18 18 18 18 18 18 18 18 17 17 17 17 17 17 17 17 17 17 17 17 17 17 17 17 17 17 17 17 16
19 19 19 19 19 19 18 18 18 18 18 18 18 18 18 18 18 18 18 18 18 18 17 17 17 17 17 17 17 17 17 17 17 17 17 17 17 17 17 17 17 17 16
19 19 19 19 19 19 18 18 18 18 18 18 18 18 18 18 18 18 18 18 17 17 17 17 17 17 17 17 17 17 17 17 17 17 17 17 17 17 17 17 17 16 16
20 19 19 19 19 19 18 18 18 18 18 18 18 18 18 18 18 18 18 18 17 17 17 17 17 17 17 17 17 17 17 17 17 17 17 17 17 17 17 17 16 16 16
20 20 19 19 19 19 19 18 18 18 18 18 18 18 18 18 18 18 18 18 17 17 17 17 17 17 17 17 17 17 17 17 17 17 17 17 17 17 17 17 16 16 16
20 20 19 19 19 19 19 18 18 18 18 18 18 18 18 18 18 18 18 17 17 17 17 17 17 17 17 17 17 17 17 17 17 17 17 17 17 17 17 17 16 16 16
20 20 19 19 19 19 19 18 18 18 18 18 18 18 18 18 18 18 17 17 17 17 17 17 17 17 17 17 17 17 17 17 17 17 17 17 17 17 17 17 16 16 16
20 20 19 19 19 19 18 18 18 18 18 18 18 18 17 17 17 17 17 17 17 17 17 17 17 17 17 17 17 17 17 17 17 17 17 17 17 17 17 17 16 16 16
20 20 19 19 19 19 18 18 18 18 18 18 18 18 17 17 17 17 17 17 17 17 17 17 17 17 17 17 17 17 17 17 17 17 17 17 17 17 17 17 16 16 16
20 20 20 19 19 19 18 18 18 18 18 18 18 18 17 17 17 17 17 17 17 17 17 17 17 17 17 17 17 17 17 17 17 17 17 17 17 17 17 17 16 16 16
21 20 19 19 19 19 19 18 18 18 18 18 18 18 17 17 17 17 17 17 17 17 17 17 17 17 17 17 17 17 17 17 17 17 17 17 17 17 17 17 16 16 16
21 20 19 19 19 19 18 18 18 18 18 18 18 17 17 17 17 17 17 17 17 17 17 17 17 17 17 17 17 17 17 17 17 17 17 17 17 17 17 17 16 16 16
21 20 20 19 19 19 19 18 18 18 18 18 18 17 17 17 17 17 17 17 17 17 17 17 17 17 17 17 17 17 17 17 17 17 17 17 17 17 17 17 17 16 16
21 20 20 20 19 19 19 19 18 18 18 18 17 17 17 17 17 17 17 17 17 17 17 17 17 17 17 17 17 17 17 17 17 17 17 17 17 17 17 17 17 16 16
21 21 20 20 20 19 19 18 18 18 18 17 17 17 17 17 17 17 17 17 17 17 17 17 17 17 17 17 17 17 17 17 17 17 17 17 17 17 17 17 17 16 16
21 21 20 20 20 19 19 18 18 18 18 18 17 17 17 17 17 17 17 17 17 17 17 17 17 17 17 17 17 17 17 17 17 17 17 17 17 17 17 17 17 17 17
21 21 20 20 19 19 19 18 18 18 18 17 17 17 17 17 17 17 17 17 17 17 17 17 17 17 17 17 17 17 17 17 17 17 16 17 17 17 17 17 17 17 16
21 21 20 20 19 19 18 18 18 18 18 17 17 17 17 17 17 17 17 17 17 17 17 17 17 17 17 17 17 17 17 17 17 16 16 16 17 17 17 17 16 16 16
Wind_Speed
3 5 10 12 13 14 14 15 15 15 15 15 15 15 15 15 14 14 14 14 14 15 14 14 14 14 15 15 14 14 14 14 15 15 15 16 16 16 17 16 15 15 17
5 7 11 12 13 13 14 14 15 15 15 15 14 14 14 14 14 14 14 14 14 14 14 14 14 14 14 14 14 14 14 14 14 14 14 14 15 15 16 16 15 14 16
6 8 11 12 13 13 13 13 14 14 14 14 13 13 13 13 13 13 13 14 14 14 15 15 14 14 14 14 13 13 13 13 14 14 14 12 13 14 15 15 15 15 16
8 9 10 12 12 12 12 13 13 13 13 13 13 13 12 12 12 13 13 13 14 14 14 14 14 14 14 14 13 13 13 14 14 14 12 11 11 13 14 14 14 15 15
7 8 10 12 12 12 12 12 12 13 12 12 12 12 12 12 12 12 13 13 13 13 14 14 13 13 13 13 13 13 13 14 14 12 11 11 11 13 14 14 14 14 14
6 8 10 12 12 11 11 11 11 12 12 12 12 12 12 12 12 13 13 13 13 13 13 13 13 13 12 12 12 13 12 13 13 11 11 10 10 13 13 13 13 13 13
6 7 9 12 12 11 11 11 11 11 11 11 11 11 11 11 12 12 12 12 12 12 12 12 12 12 11 11 12 12 12 13 12 11 10 9 10 13 13 13 13 13 13
6 6 8 11 11 10 10 10 10 10 10 11 11 11 11 11 11 11 11 11 11 12 11 12 11 11 10 10 11 12 12 12 11 10 9 9 11 13 13 13 13 13 13
5 5 5 8 9 10 10 10 10 9 9 10 10 10 10 10 10 10 10 10 10 10 10 10 10 10 9 9 10 11 11 11 10 9 9 9 10 11 12 12 12 12 12
4 3 4 5 6 7 7 9 9 9 9 9 9 9 8 8 8 9 8 9 9 9 9 9 9 9 9 9 10 10 11 10 8 8 7 8 10 10 11 11 10 11 11
5 2 3 4 5 5 5 7 7 7 7 7 6 7 6 6 6 5 6 7 7 8 8 8 8 8 8 8 9 10 9 8 7 6 6 8 9 10 10 10 9 10 10
7 5 3 3 4 4 4 5 5 5 5 4 4 5 5 5 4 4 4 5 5 6 6 7 7 8 7 7 7 8 7 7 6 6 6 8 9 9 9 9 9 9 9
7 6 5 4 4 4 3 4 4 4 4 3 3 4 4 3 3 3 3 4 4 4 5 5 6 5 5 5 5 5 5 5 5 5 6 8 8 9 9 8 8 8 9
7 6 5 5 4 4 3 3 3 3 2 2 2 3 3 2 1 1 1 2 3 3 3 3 3 3 3 4 5 5 5 4 4 5 6 8 8 8 9 8 8 8 8
7 6 5 5 5 4 4 3 3 3 3 3 3 3 4 2 1 1 0 0 1 1 1 1 2 2 2 3 4 4 4 4 5 5 6 8 9 9 9 9 9 8 8
8 7 6 6 5 5 4 3 4 4 4 4 4 5 6 5 3 2 1 1 1 1 0 1 1 2 1 1 2 3 4 4 5 5 5 7 9 9 9 9 9 9 9
9 8 7 7 5 5 5 5 5 6 6 5 5 6 6 6 5 3 2 2 2 1 0 1 1 2 1 1 1 2 3 4 5 5 6 6 7 8 10 10 10 10 10
8 8 8 7 6 6 5 5 4 5 5 5 5 5 6 6 6 4 3 3 2 2 1 1 1 1 1 1 1 1 2 3 4 5 5 6 6 7 8 10 10 10 10
8 8 7 6 6 6 5 4 3 3 4 5 5 5 5 6 6 5 3 3 3 2 2 2 1 1 1 1 1 1 1 2 3 5 6 7 8 8 8 9 11 11 11
7 7 7 6 6 5 3 2 2 1 2 3 4 4 4 4 5 5 4 3 3 2 2 1 1 1 1 2 1 1 1 2 3 4 6 6 8 9 9 9 9 10 12
6 7 7 7 5 5 3 3 2 2 2 1 2 4 5 5 5 5 3 3 3 3 3 3 2 2 1 2 1 1 1 1 2 3 4 5 6 9 9 9 10 10 10
7 6 7 6 6 6 4 3 2 2 2 2 2 2 5 5 5 5 4 3 3 3 3 3 3 2 1 2 2 1 1 2 2 2 3 4 5 5 7 9 9 10 10
7 7 7 6 6 5 4 3 2 1 1 0 1 1 3 5 5 5 4 4 4 4 4 4 4 4 3 1 2 3 2 2 2 2 1 2 3 3 4 6 8 9 10
7 6 5 5 5 4 4 4 4 3 3 3 2 2 3 4 4 5 5 5 4 4 4 4 4 3 4 2 1 1 2 3 2 1 2 1 2 3 4 4 6 8 9
6 6 5 5 4 4 4 4 4 2 2 1 1 2 2 2 3 4 5 4 4 3 4 4 3 4 4 4 3 2 2 1 2 2 2 2 2 2 3 4 4 5 7
5 5 5 5 4 3 3 3 4 4 3 2 2 2 2 2 2 3 3 3 3 3 4 4 3 4 3 3 3 3 3 2 3 3 3 3 2 2 2 2 2 3 4
Wind_Direction
138 142 123 113 107 104 100 99 99 101 102 102 102 103 103 104 104 105 104 103 103 104 105 105 106 109 112 112 112 113 117 121 120 119 118 118 117 116 113 112 112 114 116
141 139 125 116 110 106 103 101 102 103 103 104 104 104 104 104 104 104 103 104 104 105 106 105 106 108 109 109 110 111 114 117 118 117 116 116 118 117 117 118 119 121 118
124 132 126 119 114 110 107 105 104 104 105 105 105 104 104 103 104 105 105 105 105 105 106 106 105 106 108 110 110 109 110 111 112 112 109 110 118 120 121 121 121 121 119
128 130 131 125 119 115 111 108 107 106 106 106 106 105 104 104 104 105 106 105 105 106 107 107 105 106 108 110 110 108 108 107 106 106 104 108 115 121 121 120 120 121 120
125 134 138 129 124 119 115 111 110 109 108 107 106 105 104 104 104 105 105 105 104 105 108 107 106 107 109 110 112 111 111 109 106 101 99 101 111 121 121 120 120 121 122
123 135 140 133 129 124 120 117 113 112 111 109 106 104 104 105 106 105 105 104 104 105 106 107 107 107 110 113 115 114 113 109 104 102 102 105 113 122 122 121 121 120 123
128 138 143 136 132 129 126 122 117 114 111 109 107 105 105 105 104 104 104 104 104 105 106 108 108 107 109 113 116 116 115 114 111 108 106 109 117 121 121 121 121 123 123
133 136 144 141 137 134 130 127 122 119 116 113 111 108 106 105 104 104 104 104 105 106 107 108 107 105 106 112 117 119 119 120 119 116 114 117 120 121 122 123 124 126 125
124 125 132 139 140 138 135 130 126 123 120 117 115 112 110 109 106 105 105 105 105 106 106 106 105 103 103 111 119 122 122 121 122 124 125 125 127 126 127 128 128 128 128
115 114 121 127 129 132 138 136 133 129 126 123 120 117 114 110 108 107 104 105 106 106 107 106 104 101 100 109 116 119 121 120 123 125 128 135 137 135 135 134 134 135 133
159 140 130 126 126 131 140 141 136 132 127 123 121 117 101 90 92 98 106 107 108 108 106 104 102 98 93 98 110 115 118 120 126 131 138 145 147 146 144 144 141 141 142
182 181 163 152 146 146 150 128 117 114 113 109 107 103 95 88 83 88 92 102 101 101 99 97 95 91 89 92 101 109 118 124 131 144 154 156 158 156 154 151 150 151 151
182 184 178 169 165 160 138 129 120 118 121 113 110 115 106 83 62 58 50 49 57 66 66 72 76 83 96 108 112 120 128 132 142 156 166 166 169 168 165 163 163 164 165
178 191 180 174 171 171 157 146 142 144 150 151 150 145 129 107 57 40 44 39 43 45 52 57 70 85 107 128 138 141 145 151 157 169 179 180 182 180 177 177 177 176 175
181 188 182 180 182 175 162 170 166 175 179 191 194 190 176 168 191 227 269 22 25 26 54 60 66 80 92 119 150 160 166 169 171 181 193 194 195 194 191 190 189 187 185
186 187 180 186 187 180 175 181 185 190 190 194 204 209 201 197 197 202 240 266 275 264 274 111 113 106 100 147 169 175 183 182 186 192 203 208 208 208 205 203 203 200 199
187 183 183 190 182 183 189 196 193 190 191 197 210 212 207 207 201 200 217 242 251 236 209 93 99 103 122 151 176 188 194 196 195 204 210 214 216 218 214 212 213 211 210
180 179 186 190 180 189 195 197 196 187 189 204 210 208 211 212 206 197 207 232 230 195 174 151 131 112 129 169 203 216 209 208 209 214 217 218 219 222 223 220 218 219 220
182 178 180 180 179 191 193 185 182 180 191 203 204 205 212 207 200 195 206 223 205 175 182 204 166 157 178 204 220 234 226 223 221 223 225 227 225 226 228 232 231 230 230
174 170 173 176 178 170 164 148 147 170 206 199 196 207 212 207 200 193 201 204 181 169 194 195 171 152 169 188 206 230 262 244 231 228 231 232 232 233 234 236 238 242 241
163 166 173 176 171 158 154 166 173 200 213 203 208 213 214 215 206 196 205 198 185 192 209 196 173 164 166 152 112 14 335 289 244 239 234 234 236 236 235 235 237 240 244
174 175 175 176 178 180 176 166 166 164 185 202 223 221 223 219 213 211 209 208 198 198 205 197 176 161 172 161 150 117 344 339 326 260 234 231 239 238 237 238 236 238 242
178 184 186 183 184 185 171 141 116 93 72 162 234 243 239 226 218 214 213 211 204 196 207 205 189 178 185 186 170 156 164 237 296 321 278 246 238 229 238 242 240 241 241
187 179 172 169 174 178 166 165 173 182 195 216 221 236 254 234 224 224 222 214 208 201 206 209 195 186 173 189 191 198 185 172 188 303 325 292 260 247 246 246 245 242 241
164 159 156 151 166 170 169 175 177 193 201 212 218 236 256 264 248 237 232 221 212 207 209 206 192 187 181 183 185 180 175 177 188 195 269 305 311 269 254 252 255 252 247
143 143 146 150 166 170 170 173 180 192 193 208 246 252 263 270 263 248 235 227 220 218 215 210 202 192 191 187 192 188 181 183 192 190 225 260 285 294 291 278 268 269 260
Height
1535 1536 1537 1538 1538 1539 1539 1539 1539 1540 1540 1540 1541 1542 1542 1543 1543 1544 1544 1545 1546 1547 1548 1549 1549 1551 1552 1553 1554 1555 1556 1557 1558 1559 1560 1561 1562 1563 1564 1565 1566 1567 1569
1536 1537 1539 1540 1540 1541 1541 1541 1542 1542 1542 1543 1544 1544 1545 1546 1546 1546 1547 1548 1548 1549 1550 1551 1552 1553 1554 1555 1556 1557 1558 1559 1560 1561 1562 1563 1564 1565 1566 1567 1568 1569 1571
1537 1539 1540 1541 1542 1543 1543 1544 1544 1544 1545 1546 1546 1547 1547 1548 1548 1549 1549 1550 1551 1551 1552 1553 1554 1555 1556 1557 1558 1559 1560 1561 1562 1563 1564 1565 1566 1567 1568 1569 1570 1571 1573
1539 1540 1542 1543 1544 1544 1545 1546 1546 1547 1547 1548 1549 1549 1550 1550 1551 1551 1552 1553 1553 1554 1554 1555 1556 1557 1558 1559 1560 1561 1562 1563 1564 1564 1565 1566 1568 1569 1570 1571 1572 1573 1574
1541 1542 1544 1545 1546 1546 1547 1548 1548 1549 1550 1550 1551 1552 1552 1553 1553 1553 1554 1555 1555 1556 1557 1558 1559 1560 1561 1561 1563 1563 1564 1565 1566 1566 1567 1569 1570 1571 1572 1573 1574 1575 1576
1542 1544 1546 1547 1548 1548 1549 1550 1551 1551 1552 1553 1553 1554 1554 1555 1555 1556 1556 1557 1557 1558 1559 1560 1561 1562 1563 1564 1565 1565 1566 1567 1568 1568 1569 1570 1572 1573 1574 1575 1576 1577 1578
1544 1546 1547 1549 1550 1550 1551 1552 1553 1553 1554 1555 1555 1556 1557 1557 1557 1558 1558 1559 1560 1560 1561 1562 1563 1564 1565 1566 1567 1567 1568 1569 1570 1570 1571 1573 1574 1575 1576 1577 1578 1579 1580
1547 1548 1549 1551 1552 1552 1553 1554 1555 1556 1556 1557 1558 1558 1559 1559 1559 1560 1561 1561 1562 1563 1564 1564 1565 1566 1567 1568 1569 1569 1570 1571 1572 1573 1573 1575 1576 1577 1578 1579 1580 1581 1582
1549 1550 1551 1552 1553 1554 1555 1556 1557 1558 1558 1559 1560 1560 1561 1561 1562 1562 1563 1563 1564 1565 1566 1566 1567 1568 1569 1570 1571 1572 1572 1573 1574 1574 1575 1576 1577 1578 1579 1580 1581 1583 1584
1550 1552 1553 1554 1555 1556 1557 1558 1559 1560 1561 1561 1562 1562 1563 1563 1564 1565 1565 1566 1566 1567 1568 1569 1570 1571 1572 1572 1573 1574 1574 1575 1576 1576 1577 1578 1579 1580 1581 1582 1583 1584 1585
1551 1553 1554 1556 1557 1558 1559 1560 1561 1562 1562 1563 1564 1564 1565 1565 1566 1567 1567 1568 1569 1569 1570 1571 1572 1573 1573 1574 1575 1576 1576 1577 1577 1578 1579 1579 1580 1581 1582 1583 1584 1585 1587
1552 1554 1555 1557 1558 1559 1560 1561 1562 1563 1564 1565 1565 1566 1567 1567 1568 1569 1569 1570 1571 1571 1572 1573 1574 1575 1575 1576 1577 1577 1578 1578 1579 1579 1580 1581 1582 1583 1583 1584 1585 1586 1587
1553 1554 1556 1558 1559 1560 1561 1562 1564 1565 1565 1566 1567 1568 1568 1569 1570 1570 1571 1572 1572 1573 1574 1574 1575 1576 1577 1578 1578 1579 1579 1580 1580 1581 1581 1582 1583 1583 1584 1585 1586 1587 1588
1553 1555 1557 1558 1560 1561 1563 1564 1565 1566 1567 1567 1568 1569 1570 1570 1571 1572 1572 1573 1574 1575 1575 1576 1577 1578 1578 1579 1579 1580 1580 1581 1581 1582 1582 1583 1583 1584 1585 1586 1586 1587 1588
1554 1556 1558 1559 1561 1562 1563 1564 1565 1567 1568 1568 1569 1570 1571 1571 1572 1573 1573 1574 1575 1576 1577 1577 1578 1578 1579 1580 1580 1581 1581 1582 1582 1582 1583 1583 1584 1584 1585 1586 1586 1587 1588
1554 1556 1558 1559 1561 1562 1564 1565 1566 1567 1568 1569 1570 1571 1571 1572 1573 1573 1574 1575 1576 1577 1577 1578 1578 1579 1579 1580 1581 1581 1582 1582 1582 1583 1583 1584 1584 1584 1585 1586 1586 1587 1588
1554 1556 1558 1559 1561 1562 1564 1565 1566 1567 1568 1569 1570 1570 1571 1572 1573 1574 1574 1575 1576 1577 1577 1578 1579 1579 1580 1580 1581 1581 1582 1582 1582 1583 1583 1583 1584 1584 1585 1585 1586 1587 1587
1555 1556 1558 1559 1560 1562 1563 1565 1566 1567 1567 1569 1569 1570 1571 1572 1573 1573 1574 1575 1576 1576 1577 1578 1578 1579 1579 1580 1580 1581 1581 1582 1582 1582 1583 1583 1583 1584 1584 1585 1585 1586 1586
1555 1556 1558 1559 1560 1561 1563 1564 1565 1566 1567 1568 1569 1570 1570 1571 1572 1573 1573 1574 1575 1576 1576 1577 1577 1578 1579 1579 1580 1580 1581 1581 1581 1582 1582 1582 1583 1583 1583 1584 1584 1585 1585
1555 1556 1558 1559 1560 1561 1563 1563 1564 1565 1566 1567 1568 1569 1569 1570 1571 1571 1572 1573 1574 1575 1575 1576 1577 1577 1578 1578 1579 1579 1579 1580 1580 1580 1581 1581 1582 1582 1582 1583 1583 1583 1583
1553 1555 1556 1558 1559 1560 1561 1562 1563 1564 1565 1566 1567 1567 1568 1568 1569 1570 1571 1571 1572 1573 1574 1574 1575 1576 1577 1577 1578 1578 1578 1578 1578 1579 1579 1580 1580 1580 1581 1581 1581 1581 1582
1552 1554 1555 1557 1558 1559 1560 1561 1562 1563 1564 1565 1565 1566 1566 1567 1567 1568 1569 1569 1570 1571 1572 1573 1573 1574 1575 1576 1576 1576 1576 1577 1576 1577 1577 1578 1578 1578 1579 1579 1579 1579 1580
1551 1552 1554 1556 1557 1558 1559 1559 1560 1561 1561 1562 1563 1564 1564 1565 1565 1566 1566 1567 1568 1569 1570 1571 1572 1572 1573 1574 1575 1576 1575 1575 1575 1575 1575 1576 1576 1576 1576 1576 1577 1577 1577
1550 1552 1553 1555 1556 1557 1558 1559 1559 1559 1560 1561 1561 1562 1563 1563 1563 1563 1564 1565 1566 1567 1567 1568 1569 1570 1571 1572 1573 1573 1574 1574 1574 1573 1574 1574 1574 1574 1574 1574 1574 1574 1574
1550 1551 1553 1554 1555 1556 1557 1557 1558 1558 1558 1559 1560 1560 1560 1561 1561 1561 1562 1562 1563 1564 1565 1566 1567 1568 1568 1569 1570 1571 1571 1572 1572 1572 1571 1572 1572 1572 1572 1572 1571 1571 1571
1549 1550 1551 1553 1554 1555 1556 1556 1556 1557 1557 1558 1558 1558 1559 1559 1559 1559 1560 1560 1561 1562 1563 1564 1564 1565 1566 1567 1567 1568 1569 1569 1569 1569 1569 1569 1569 1569 1569 1569 1569 1568 1568